| time (UTC) | temp F | wind direction | speed MPH | gust MPH | rain 1hr in | rain 24hr in | rain mn in | humidity % | barometer mb |
| 20260906220105 | 90 | 67 | 2.0 | 12.0 | 0.00 | 0.00 | 0.00 | 32 | 1013.8 |
| 20260906214559 | 90 | 105 | 0.0 | 11.0 | 0.00 | 0.00 | 0.00 | 33 | 1014.1 |
| 20260906213107 | 89 | 0 | 0.0 | 0.0 | 0.00 | 0.00 | 0.00 | 32 | 1014.3 |
| 20260906211602 | 89 | 0 | 0.0 | 0.0 | 0.00 | 0.00 | 0.00 | 33 | 1014.6 |
| 20260906210105 | 89 | 0 | 0.0 | 6.0 | 0.00 | 0.00 | 0.00 | 33 | 1014.9 |
| 20260906204606 | 88 | 0 | 0.0 | 0.0 | 0.00 | 0.00 | 0.00 | 34 | 1015.3 |
| 20260906203102 | 87 | 0 | 0.0 | 9.0 | 0.00 | 0.00 | 0.00 | 36 | 1015.4 |
| 20260906201609 | 87 | 110 | 2.0 | 10.0 | 0.00 | 0.00 | 0.00 | 37 | 1015.6 |
| 20260906200100 | 86 | 246 | 3.0 | 13.0 | 0.00 | 0.00 | 0.00 | 37 | 1015.8 |
| 20260906194603 | 85 | 30 | 3.0 | 8.0 | 0.00 | 0.00 | 0.00 | 38 | 1016.1 |
| 20260906193103 | 84 | 101 | 3.0 | 10.0 | 0.00 | 0.00 | 0.00 | 40 | 1016.3 |
| 20260906191602 | 83 | 266 | 2.0 | 11.0 | 0.00 | 0.00 | 0.00 | 39 | 1016.4 |
| 20260906184604 | 83 | 0 | 1.0 | 8.0 | 0.00 | 0.00 | 0.00 | 42 | 1017.1 |
| 20260906183104 | 82 | 352 | 3.0 | 8.0 | 0.00 | 0.00 | 0.00 | 43 | 1017.4 |
| 20260906181607 | 82 | 350 | 1.0 | 4.0 | 0.00 | 0.00 | 0.00 | 43 | 1017.7 |
| 20260906180109 | 81 | 350 | 3.0 | 8.0 | 0.00 | 0.00 | 0.00 | 44 | 1017.9 |
| 20260906174600 | 80 | 118 | 0.0 | 8.0 | 0.00 | 0.00 | 0.00 | 47 | 1018.2 |
| 20260906173108 | 78 | 285 | 2.0 | 6.0 | 0.00 | 0.00 | 0.00 | 48 | 1018.4 |
| 20260906171607 | 78 | 42 | 0.0 | 2.0 | 0.00 | 0.00 | 0.00 | 51 | 1019.0 |
| 20260906170109 | 76 | 54 | 0.0 | 4.0 | 0.00 | 0.00 | 0.00 | 52 | 1019.1 |
| 20260906164604 | 76 | 0 | 1.0 | 4.0 | 0.00 | 0.00 | 0.00 | 53 | 1019.3 |
| 20260906163108 | 75 | 226 | 1.0 | 5.0 | 0.00 | 0.00 | 0.00 | 57 | 1019.3 |
| 20260906161559 | 74 | 92 | 2.0 | 4.0 | 0.00 | 0.00 | 0.00 | 59 | 1019.2 |
| 20260906160104 | 73 | 266 | 0.0 | 5.0 | 0.00 | 0.00 | 0.00 | 60 | 1019.3 |
| 20260906154604 | 72 | 52 | 2.0 | 5.0 | 0.00 | 0.00 | 0.00 | 61 | 1019.3 |
| 20260906153103 | 72 | 0 | 2.0 | 6.0 | 0.00 | 0.00 | 0.00 | 60 | 1019.3 |
| 20260906151601 | 72 | 0 | 0.0 | 3.0 | 0.00 | 0.00 | 0.00 | 60 | 1019.4 |
| 20260906150106 | 70 | 0 | 0.0 | 0.0 | 0.00 | 0.00 | 0.00 | 64 | 1019.4 |
| 20260906144602 | 69 | 219 | 1.0 | 3.0 | 0.00 | 0.00 | 0.00 | 65 | 1019.4 |
| 20260906143107 | 68 | 0 | 0.0 | 3.0 | 0.00 | 0.00 | 0.00 | 68 | 1019.5 |
| 20260906141600 | 67 | 246 | 0.0 | 2.0 | 0.00 | 0.00 | 0.00 | 69 | 1019.5 |
| 20260906140059 | 66 | 0 | 0.0 | 2.0 | 0.00 | 0.00 | 0.00 | 71 | 1019.4 |
| 20260906134553 | 64 | 0 | 0.0 | 0.0 | 0.00 | 0.00 | 0.00 | 75 | 1019.5 |
| 20260906133105 | 62 | 0 | 0.0 | 0.0 | 0.00 | 0.00 | 0.00 | 79 | 1019.5 |
| 20260906131600 | 61 | 0 | 0.0 | 0.0 | 0.00 | 0.00 | 0.00 | 82 | 1019.3 |
| 20260906130100 | 60 | 0 | 0.0 | 0.0 | 0.00 | 0.00 | 0.00 | 81 | 1018.9 |
| 20260906124553 | 60 | 0 | 0.0 | 0.0 | 0.00 | 0.00 | 0.00 | 80 | 1018.8 |
| 20260906123103 | 61 | 0 | 0.0 | 0.0 | 0.00 | 0.00 | 0.00 | 79 | 1018.8 |
| 20260906121604 | 61 | 0 | 0.0 | 0.0 | 0.00 | 0.00 | 0.00 | 77 | 1018.8 |
| 20260906120114 | 62 | 0 | 0.0 | 0.0 | 0.00 | 0.00 | 0.00 | 74 | 1018.8 |
| 20260906114553 | 63 | 0 | 0.0 | 0.0 | 0.00 | 0.00 | 0.00 | 73 | 1018.9 |
| 20260906113102 | 63 | 0 | 0.0 | 0.0 | 0.00 | 0.00 | 0.00 | 71 | 1018.9 |
| 20260906111617 | 64 | 0 | 0.0 | 3.0 | 0.00 | 0.00 | 0.00 | 70 | 1018.7 |
| 20260906110059 | 64 | 0 | 0.0 | 4.0 | 0.00 | 0.00 | 0.00 | 68 | 1018.6 |
| 20260906104604 | 63 | 0 | 0.0 | 0.0 | 0.00 | 0.00 | 0.00 | 67 | 1018.4 |
| 20260906103059 | 63 | 0 | 0.0 | 0.0 | 0.00 | 0.00 | 0.00 | 67 | 1018.4 |
| 20260906101604 | 63 | 0 | 0.0 | 0.0 | 0.00 | 0.00 | 0.00 | 67 | 1018.2 |
| 20260906100059 | 63 | 0 | 0.0 | 0.0 | 0.00 | 0.00 | 0.00 | 67 | 1018.3 |
| 20260906094604 | 63 | 0 | 0.0 | 0.0 | 0.00 | 0.00 | 0.00 | 67 | 1018.3 |
| 20260906093105 | 64 | 0 | 0.0 | 0.0 | 0.00 | 0.00 | 0.00 | 66 | 1018.3 |
| 20260906091615 | 64 | 0 | 0.0 | 0.0 | 0.00 | 0.00 | 0.00 | 66 | 1018.3 |
| 20260906090112 | 65 | 0 | 0.0 | 0.0 | 0.00 | 0.00 | 0.00 | 64 | 1018.0 |
| 20260906084625 | 66 | 0 | 0.0 | 0.0 | 0.00 | 0.00 | 0.00 | 61 | 1017.8 |
| 20260906083102 | 67 | 0 | 0.0 | 0.0 | 0.00 | 0.00 | 0.00 | 59 | 1017.7 |
| 20260906081603 | 67 | 0 | 0.0 | 0.0 | 0.00 | 0.00 | 0.00 | 58 | 1018.0 |
| 20260906080110 | 67 | 0 | 0.0 | 0.0 | 0.00 | 0.00 | 0.00 | 57 | 1017.8 |
| 20260906074601 | 67 | 0 | 0.0 | 0.0 | 0.00 | 0.00 | 0.00 | 56 | 1017.8 |
| 20260906073059 | 68 | 0 | 0.0 | 0.0 | 0.00 | 0.00 | 0.00 | 56 | 1017.7 |
| 20260906071604 | 69 | 0 | 0.0 | 0.0 | 0.00 | 0.00 | 0.00 | 55 | 1017.6 |
| 20260906064558 | 70 | 0 | 0.0 | 0.0 | 0.00 | 0.00 | 0.00 | 52 | 1017.4 |
| 20260906063058 | 71 | 0 | 0.0 | 0.0 | 0.00 | 0.00 | 0.00 | 50 | 1017.9 |
| 20260906061605 | 72 | 0 | 0.0 | 4.0 | 0.00 | 0.00 | 0.00 | 49 | 1018.1 |
| 20260906054559 | 74 | 218 | 1.0 | 4.0 | 0.00 | 0.00 | 0.00 | 45 | 1018.3 |
| 20260906053100 | 75 | 233 | 3.0 | 8.0 | 0.00 | 0.00 | 0.00 | 43 | 1018.3 |
| 20260906051607 | 76 | 0 | 1.0 | 10.0 | 0.00 | 0.00 | 0.00 | 41 | 1018.2 |
| 20260906050057 | 76 | 228 | 2.0 | 7.0 | 0.00 | 0.00 | 0.00 | 39 | 1018.4 |
| 20260906044605 | 75 | 0 | 0.0 | 7.0 | 0.00 | 0.00 | 0.00 | 40 | 1018.6 |
| 20260906043100 | 74 | 235 | 0.0 | 3.0 | 0.00 | 0.00 | 0.00 | 43 | 1018.6 |
| 20260906041605 | 72 | 172 | 0.0 | 2.0 | 0.00 | 0.00 | 0.00 | 46 | 1018.5 |
| 20260906040113 | 71 | 0 | 0.0 | 0.0 | 0.00 | 0.00 | 0.00 | 47 | 1017.7 |
| 20260906034557 | 72 | 0 | 0.0 | 0.0 | 0.00 | 0.00 | 0.00 | 46 | 1017.3 |
| 20260906033106 | 74 | 0 | 0.0 | 0.0 | 0.00 | 0.00 | 0.00 | 42 | 1017.2 |
| 20260906031601 | 74 | 0 | 0.0 | 0.0 | 0.00 | 0.00 | 0.00 | 41 | 1017.1 |
| 20260906030108 | 76 | 0 | 0.0 | 0.0 | 0.00 | 0.00 | 0.00 | 39 | 1016.9 |
| 20260906024625 | 76 | 0 | 0.0 | 0.0 | 0.00 | 0.00 | 0.00 | 38 | 1016.5 |
| 20260906023104 | 78 | 0 | 0.0 | 0.0 | 0.00 | 0.00 | 0.00 | 37 | 1016.4 |
| 20260906021559 | 80 | 0 | 0.0 | 0.0 | 0.00 | 0.00 | 0.00 | 34 | 1016.2 |
| 20260906020110 | 81 | 0 | 0.0 | 4.0 | 0.00 | 0.00 | 0.00 | 31 | 1016.1 |
| 20260906014612 | 83 | 0 | 0.0 | 2.0 | 0.00 | 0.00 | 0.00 | 30 | 1015.9 |
| 20260906013103 | 84 | 0 | 0.0 | 7.0 | 0.00 | 0.00 | 0.00 | 28 | 1015.7 |
| 20260906011603 | 85 | 0 | 0.0 | 1.0 | 0.00 | 0.00 | 0.00 | 27 | 1015.6 |
| 20260906010119 | 87 | 345 | 0.0 | 1.0 | 0.00 | 0.00 | 0.00 | 26 | 1015.5 |
| 20260906004607 | 88 | 0 | 0.0 | 0.0 | 0.00 | 0.00 | 0.00 | 25 | 1015.5 |
| 20260906003118 | 90 | 0 | 0.0 | 0.0 | 0.00 | 0.00 | 0.00 | 24 | 1015.4 |
| 20260906001558 | 91 | 0 | 1.0 | 4.0 | 0.00 | 0.00 | 0.00 | 22 | 1015.5 |
| 20260906000103 | 93 | 66 | 1.0 | 3.0 | 0.00 | 0.00 | 0.00 | 21 | 1015.4 |
| 20260905234603 | 93 | 0 | 0.0 | 4.0 | 0.00 | 0.00 | 0.00 | 20 | 1015.2 |
| 20260905233102 | 92 | 39 | 1.0 | 5.0 | 0.00 | 0.00 | 0.00 | 21 | 1015.3 |
| 20260905231559 | 90 | 43 | 1.0 | 7.0 | 0.00 | 0.00 | 0.00 | 23 | 1015.3 |
| 20260905230108 | 91 | 27 | 2.0 | 5.0 | 0.00 | 0.00 | 0.00 | 22 | 1015.4 |
| 20260905224602 | 92 | 360 | 1.0 | 7.0 | 0.00 | 0.00 | 0.00 | 21 | 1015.3 |
| 20260905223100 | 91 | 0 | 0.0 | 8.0 | 0.00 | 0.00 | 0.00 | 22 | 1015.3 |
| 20260905221555 | 90 | 101 | 1.0 | 8.0 | 0.00 | 0.00 | 0.00 | 24 | 1015.5 |